Lapse_Rate
6.0 6.5 6.5 6.5 6.5 6.5 6.5 6.5 6.5 6.5 6.5 6.5 6.5 6.5 6.5 6.5 6.1 6.4 5.6 5.2 4.7 5.6 5.8 4.4 5.7 4.9 5.0 4.5 3.8 3.5 2.8 2.2 4.5 5.6 5.3 5.1 6.5 5.5 5.6 5.5 5.9 5.9 5.9 5.5
6.5 6.5 6.5 6.5 6.5 6.5 6.5 6.5 6.5 6.5 6.5 6.5 6.5 6.5 6.5 6.5 6.5 6.0 5.8 5.4 5.4 5.4 4.8 4.7 5.4 5.4 5.8 5.3 5.1 4.6 3.9 4.3 4.4 6.0 6.1 6.2 5.6 5.6 6.0 6.0 6.0 6.3 5.7 5.6
6.5 6.5 6.5 6.5 6.5 6.5 6.5 6.5 6.5 6.5 6.5 6.5 6.5 6.5 6.5 6.5 6.5 6.5 6.1 5.2 4.9 5.5 4.3 5.3 4.8 4.9 5.4 5.0 4.8 4.7 4.8 5.4 4.8 4.9 4.7 4.3 5.4 5.2 5.6 5.8 5.9 5.5 5.8 5.4
6.5 6.5 6.5 6.5 6.5 6.5 6.5 6.5 6.5 6.5 6.5 6.5 6.5 6.5 6.5 6.5 6.5 6.5 6.1 4.0 4.8 4.7 5.0 4.4 5.0 4.8 5.1 5.1 5.1 4.6 4.6 5.0 4.8 5.1 5.4 5.6 6.0 6.2 6.2 6.0 5.5 5.5 5.8 5.3
6.5 6.5 6.5 6.5 6.5 6.5 6.5 6.5 6.5 6.5 6.5 6.5 6.5 6.5 6.5 6.5 6.5 6.5 6.5 5.4 4.8 4.6 4.8 5.2 4.8 4.9 4.5 4.0 4.2 4.1 4.4 5.7 4.9 4.3 5.5 5.2 5.2 4.3 5.1 5.2 5.1 5.1 4.7 5.0
6.5 6.1 6.5 6.5 6.5 6.5 6.5 6.5 6.5 6.5 6.5 6.5 6.5 6.5 6.5 6.5 6.5 6.5 6.5 6.3 5.0 3.8 5.2 4.7 5.0 4.7 4.6 5.1 4.1 4.8 4.4 4.8 5.2 5.0 4.9 7.2 6.7 4.6 4.4 4.3 4.0 3.7 3.6 3.8
6.5 6.5 6.5 6.5 6.5 6.5 6.5 6.5 6.5 6.5 6.5 6.5 6.5 6.5 6.5 6.5 6.5 6.5 6.5 6.5 5.5 5.7 6.1 5.3 5.5 5.3 4.1 3.8 4.1 5.0 4.7 4.3 4.9 4.9 5.3 4.5 3.1 3.5 3.6 3.7 4.0 3.7 3.1 2.8
6.5 6.5 6.5 6.5 6.5 6.5 6.5 6.5 6.5 6.5 6.5 6.5 6.5 6.5 6.5 6.5 6.4 6.5 6.2 6.5 6.4 5.6 5.1 5.7 5.2 4.6 4.4 3.7 4.3 4.8 4.9 4.9 5.1 4.8 5.0 4.6 4.0 3.2 3.0 2.6 2.3 2.1 2.2 2.0
6.5 6.5 6.5 6.5 6.5 6.5 6.5 6.5 6.5 6.5 6.5 6.5 6.5 6.5 6.5 6.5 6.5 6.4 6.7 6.4 6.6 6.3 5.0 5.3 4.6 3.8 4.6 4.3 4.9 5.0 4.7 4.8 4.8 4.1 5.2 4.6 4.3 4.2 3.7 3.7 3.3 3.3 3.0 2.9
6.5 6.5 6.5 6.5 6.2 6.4 6.5 6.5 6.5 6.5 6.5 6.5 6.5 6.5 6.5 6.5 6.5 6.5 6.5 6.5 6.0 5.7 5.1 5.0 4.8 4.8 4.5 4.1 4.0 4.9 4.7 5.1 5.4 5.4 4.9 4.3 4.2 3.7 4.2 4.2 3.5 3.5 3.1 3.2
6.5 6.5 6.5 6.5 6.5 6.5 6.5 6.5 6.5 6.5 6.5 6.5 6.5 6.5 6.5 6.5 6.5 6.5 6.5 5.6 5.3 5.4 5.3 4.6 3.8 4.3 4.3 4.0 3.6 4.0 4.3 4.2 4.9 6.0 5.2 5.2 5.1 4.9 4.2 4.3 3.9 3.6 3.2 3.0
6.5 6.5 6.5 6.5 6.5 6.5 6.5 6.5 6.5 6.5 6.5 6.5 6.5 6.5 6.5 6.5 6.6 5.9 5.8 5.5 5.0 4.6 4.8 5.5 4.9 3.8 3.0 3.7 4.0 4.6 4.3 3.9 4.4 4.8 5.6 5.6 5.5 5.0 4.6 5.0 5.0 4.5 3.2 3.7
6.5 6.5 6.5 6.5 6.5 6.5 6.5 6.5 6.5 6.5 6.5 6.5 6.5 6.5 6.5 6.2 6.4 6.0 5.3 4.5 5.0 5.3 4.8 5.0 5.1 4.5 3.4 2.8 3.6 3.8 3.5 3.8 3.6 3.6 4.3 4.4 4.3 4.3 4.0 3.5 3.0 2.3 1.5 1.8
6.3 6.5 6.5 6.5 6.5 6.5 6.5 6.5 6.5 6.5 6.5 6.5 6.5 6.5 6.5 6.5 6.5 6.3 5.5 4.9 4.5 4.9 5.4 5.1 5.0 5.0 4.8 4.2 4.0 3.4 3.2 3.1 2.5 2.6 2.5 2.8 2.5 2.5 2.2 1.9 1.4 0.6 0.1 0.2
6.5 6.5 6.5 6.5 6.5 6.5 6.5 6.5 6.5 6.5 6.5 6.5 6.5 6.5 6.5 6.5 6.5 6.5 4.5 5.9 6.1 6.1 6.1 5.5 4.7 4.3 4.6 4.2 4.1 3.9 3.3 3.1 3.2 3.1 2.1 2.3 1.7 1.1 1.1 0.9 0.3 -0.1 -0.1 -0.0
6.5 6.5 6.5 6.5 6.5 6.5 6.5 6.5 6.5 6.5 6.5 6.5 6.5 6.5 6.5 6.1 5.1 5.2 5.6 6.2 6.0 6.1 6.1 5.7 5.1 4.1 4.0 3.6 3.6 3.6 3.6 3.5 3.2 2.4 2.4 1.6 1.3 0.9 0.6 0.1 0.1 0.3 -0.3 -0.7
6.5 6.5 6.5 6.5 6.5 6.5 6.5 6.5 6.5 6.5 6.5 6.5 6.5 6.5 6.5 6.5 6.5 6.2 5.5 5.6 6.1 6.2 5.8 5.2 4.6 4.2 3.5 2.7 3.1 3.0 3.3 3.0 3.0 2.8 2.6 2.1 1.4 0.6 0.5 0.2 -0.1 -0.5 -0.9 -1.3
6.5 6.5 6.5 6.5 6.5 6.5 6.5 6.5 6.5 6.5 6.5 6.5 6.5 6.5 6.5 6.7 6.9 5.3 5.4 5.3 5.1 5.6 5.3 5.0 4.1 4.1 3.4 2.9 2.1 1.8 2.2 2.8 2.9 2.6 2.4 2.0 1.5 1.2 0.5 0.0 -0.2 -0.5 -1.0 -1.0
6.3 6.5 6.5 6.5 6.5 6.5 6.5 6.5 6.5 6.5 6.5 6.5 6.5 6.5 6.5 6.3 6.6 6.5 6.0 6.0 5.6 5.1 4.6 4.3 4.0 4.4 3.3 2.0 1.5 1.8 1.8 1.8 2.5 2.7 2.6 2.2 1.6 1.2 0.7 0.3 -0.1 -0.4 -1.9 -1.9
6.5 6.5 6.5 6.5 6.5 6.5 6.5 6.5 5.9 6.4 6.5 6.3 5.9 6.4 6.4 6.0 6.5 6.5 4.9 5.9 5.6 5.3 4.6 3.7 3.3 3.3 2.3 1.5 1.4 1.5 1.3 1.6 1.7 1.9 2.0 2.3 1.9 1.3 0.8 0.4 -0.2 -0.8 -1.5 -1.7
6.5 6.5 6.5 6.5 6.5 6.5 6.5 6.1 5.9 6.5 6.5 5.8 5.4 5.7 6.2 6.5 6.1 5.8 5.7 5.4 6.0 5.9 5.7 4.5 3.2 2.7 2.2 1.5 1.1 1.1 1.1 1.0 1.4 1.6 1.7 2.0 2.0 1.4 1.1 0.2 -0.8 -1.5 -1.4 -0.9
6.5 6.5 6.5 6.5 6.5 6.5 5.4 6.3 6.5 6.1 5.2 4.7 4.9 5.1 5.6 5.9 6.5 6.5 6.9 6.4 5.7 6.3 5.7 4.8 3.5 2.8 2.3 1.7 1.4 1.1 0.9 0.6 0.6 0.8 1.1 1.4 1.9 2.0 1.1 0.6 -0.2 -0.8 -0.6 -0.3
6.5 6.5 6.5 6.5 6.5 5.8 4.3 5.9 4.7 4.5 4.6 5.3 4.9 5.5 5.6 6.2 6.5 6.2 6.0 5.8 5.9 5.6 5.8 4.8 3.7 3.2 2.3 1.6 1.1 0.9 0.6 0.8 1.1 1.4 1.5 1.5 2.0 1.8 1.1 0.8 0.1 -0.2 -0.2 0.1
6.5 5.4 6.5 6.5 6.5 6.1 3.7 4.9 4.3 5.0 4.8 4.5 4.4 5.2 6.0 6.1 6.3 6.2 5.4 5.1 5.1 5.7 5.6 5.4 4.7 2.9 2.5 1.9 2.0 1.4 0.9 0.8 1.1 1.6 2.5 3.0 4.0 4.5 3.8 3.4 2.2 1.6 1.2 0.9
5.8 6.0 6.5 6.5 6.2 5.5 4.5 3.5 3.7 3.4 3.7 4.5 5.4 5.9 6.2 6.6 6.5 6.6 6.0 5.8 5.2 5.3 5.2 5.7 4.6 3.0 2.6 2.2 1.9 1.5 1.4 1.2 1.6 1.8 2.3 4.7 5.9 5.2 4.8 4.1 3.6 3.5 3.1 2.8
4.8 6.5 6.5 6.5 4.6 4.8 4.4 2.6 2.5 2.6 3.5 4.3 5.1 6.0 6.9 7.0 6.5 6.5 6.9 5.7 5.5 5.1 5.0 4.7 5.1 4.0 3.6 3.0 2.2 1.7 2.0 1.4 2.0 2.6 2.4 4.1 3.9 3.7 4.1 3.6 3.4 3.3 3.2 3.8
Wind_Speed
5 2 6 7 9 15 14 12 15 16 9 5 17 19 19 14 7 4 8 7 10 13 8 13 7 6 5 3 5 6 6 9 7 9 8 9 10 8 6 5 12 14 16 16
3 7 10 10 8 10 8 11 12 7 6 5 9 16 16 7 5 5 8 7 9 11 14 12 10 8 6 6 6 6 4 7 8 10 10 10 10 8 9 7 9 14 14 15
3 6 5 6 7 9 6 5 7 14 10 9 6 8 8 1 4 5 9 2 14 15 16 13 11 9 7 8 7 6 9 13 13 12 5 5 8 7 7 8 7 9 16 15
5 4 7 7 8 9 5 3 12 14 10 4 4 4 8 15 4 6 7 6 11 11 9 9 11 9 11 9 7 4 6 14 15 15 10 11 10 11 8 9 7 8 15 11
7 4 3 4 5 7 7 7 11 8 9 4 4 3 9 7 12 13 5 4 5 14 18 12 9 9 9 9 6 5 4 14 10 12 13 11 12 9 8 8 10 8 6 10
7 4 3 2 8 8 12 9 10 3 1 2 4 3 9 14 9 13 11 8 1 7 13 8 8 7 9 8 9 4 6 9 9 8 9 21 18 10 10 8 7 6 4 4
6 3 3 3 6 6 14 5 3 3 3 4 4 10 8 17 9 9 13 15 5 5 11 8 5 6 6 9 8 8 7 8 9 10 12 5 8 10 10 11 9 9 5 3
4 7 6 6 3 4 5 3 3 4 1 3 8 5 6 13 10 6 14 15 8 4 5 5 6 9 9 7 6 9 8 5 10 7 8 3 1 3 4 4 5 4 5 5
5 4 5 5 2 3 7 3 1 3 1 3 4 8 6 18 17 13 13 14 12 12 5 4 5 2 5 10 11 10 11 9 9 12 8 6 5 4 6 5 6 4 4 3
4 2 5 4 8 8 4 4 4 4 4 4 3 4 7 13 11 12 13 11 9 10 10 10 7 3 5 5 4 7 10 14 13 12 12 9 9 7 9 7 8 6 5 7
5 3 6 6 5 5 6 5 4 4 3 4 1 4 12 11 9 8 9 8 8 10 9 7 6 6 4 1 5 5 6 11 12 11 9 10 7 11 8 7 8 9 9 7
3 3 2 1 4 4 4 5 3 3 4 3 2 3 8 13 9 8 10 10 9 7 7 7 7 6 6 6 5 2 5 6 9 10 11 13 13 12 11 13 15 10 12 10
4 3 3 7 7 7 5 6 4 2 2 2 1 1 7 9 13 11 9 9 10 11 10 8 10 8 7 7 6 6 6 4 4 7 9 8 5 6 9 10 9 8 8 7
3 3 5 5 6 3 4 6 6 4 4 2 2 3 7 9 10 11 13 11 8 9 12 12 11 10 9 9 9 7 7 6 6 4 10 8 6 6 5 3 5 5 6 7
4 3 3 2 3 2 4 3 4 3 4 4 3 1 5 7 6 7 8 11 12 12 12 10 10 9 10 8 8 7 7 6 6 5 6 4 9 7 6 5 4 4 5 5
4 0 2 4 2 4 2 5 4 3 3 2 2 3 4 6 7 9 10 9 9 10 10 10 8 8 9 8 7 6 6 5 5 5 5 5 5 9 7 6 5 4 4 5
3 3 3 3 2 4 5 4 3 1 2 4 2 3 3 3 6 6 7 7 8 7 7 8 8 7 7 8 6 6 5 6 6 5 4 4 5 6 5 5 5 5 5 5
3 2 2 3 4 4 5 2 2 3 3 4 3 3 4 5 3 5 5 4 6 6 6 7 7 6 5 5 7 7 6 6 5 4 3 2 4 4 5 5 4 4 4 5
3 2 2 3 2 4 1 4 4 4 4 7 6 5 2 3 2 2 3 4 4 5 5 4 4 5 6 7 6 6 6 6 5 3 1 1 2 2 3 4 4 2 3 2
2 3 3 1 2 4 4 4 4 4 3 6 6 6 3 3 3 2 4 3 5 5 4 5 6 4 5 6 7 6 6 6 6 6 6 4 5 5 6 6 6 3 2 3
2 2 3 2 2 6 4 6 4 2 5 6 7 6 4 2 1 3 5 6 4 4 5 4 6 5 4 5 5 6 6 6 6 6 5 5 5 5 6 5 3 4 4 4
5 4 3 1 1 6 7 5 6 4 3 7 7 6 5 5 3 3 2 4 6 6 4 4 4 5 5 5 5 5 5 6 7 6 6 6 4 4 5 6 4 5 5 5
2 6 3 8 5 5 7 4 4 4 5 5 6 4 5 4 2 3 3 5 5 6 4 3 3 3 4 5 5 6 6 6 6 6 6 6 5 1 3 5 6 4 5 4
3 4 3 2 3 7 9 5 6 5 5 5 5 5 3 2 2 3 4 6 5 5 4 3 4 4 4 4 4 4 6 7 6 6 6 4 3 3 4 2 3 3 4 4
5 6 5 6 8 5 7 8 8 7 7 6 5 4 4 2 3 3 4 5 5 5 3 3 4 3 4 5 4 4 5 6 6 6 5 5 3 3 3 3 3 4 4 6
6 7 5 7 8 4 5 7 10 9 7 7 6 5 3 3 4 5 6 5 4 5 3 4 4 3 4 3 4 6 5 5 5 4 4 4 4 4 1 2 2 2 2 7
Wind_Direction
194 182 241 244 236 249 268 315 314 314 323 160 238 262 269 273 252 232 233 226 200 142 158 115 127 131 163 150 123 157 163 149 160 176 158 157 159 142 145 150 152 151 156 158
226 251 248 238 248 247 277 303 312 309 242 228 273 272 269 253 221 217 271 240 157 130 114 115 143 162 182 169 167 174 170 164 149 198 170 167 157 153 159 161 156 158 159 168
239 265 338 344 322 310 315 305 302 317 318 212 305 298 336 1 258 305 309 196 144 157 138 157 162 160 166 167 147 151 183 181 160 173 157 142 142 143 152 160 169 171 173 175
274 359 27 356 327 3 313 342 343 326 344 312 127 297 350 327 350 329 303 111 148 151 141 135 157 161 156 143 139 131 186 171 148 154 170 180 165 166 172 171 175 174 169 164
265 321 7 333 325 328 256 311 305 289 299 328 341 70 320 14 354 14 284 135 186 161 157 178 146 174 142 135 128 113 140 163 175 145 174 177 183 170 159 151 151 135 143 148
251 284 104 263 289 280 276 301 301 252 252 25 290 117 359 2 57 353 11 4 291 157 137 137 153 158 156 155 142 184 153 112 133 155 173 193 188 160 152 151 154 143 144 142
333 21 324 336 333 333 358 10 347 14 16 216 358 74 53 3 27 81 8 0 68 65 137 148 177 162 169 148 152 166 178 147 113 143 180 193 155 150 168 169 174 157 152 153
59 350 358 338 9 298 309 54 345 20 56 323 22 46 20 5 39 24 42 359 14 94 148 168 214 180 170 140 169 170 171 144 130 122 158 208 103 162 135 155 148 170 172 170
31 323 337 354 12 30 313 22 165 303 181 47 5 355 343 5 17 48 65 20 10 19 28 171 183 203 158 193 184 181 172 164 167 153 171 176 187 164 177 188 183 167 151 177
319 346 332 332 25 343 54 295 35 345 36 77 341 65 6 7 8 17 32 49 359 20 33 36 45 54 225 236 187 186 176 189 176 172 186 189 202 207 195 190 201 183 175 183
28 68 314 32 9 29 1 20 26 119 31 21 50 69 8 354 358 23 14 22 8 20 19 18 24 16 16 356 209 189 205 161 169 185 188 187 209 210 190 210 215 198 187 185
331 97 70 5 4 24 67 36 47 85 335 35 81 59 323 340 1 35 30 23 25 24 18 19 29 22 30 26 42 168 185 190 184 185 194 203 218 216 211 209 215 211 203 185
334 25 37 342 348 357 25 1 41 75 28 21 63 42 323 338 12 17 28 24 25 25 20 19 34 20 20 23 28 41 39 51 143 151 167 146 157 208 234 225 214 198 163 151
91 67 138 163 211 235 335 350 358 78 67 340 96 312 357 1 16 13 7 6 21 30 34 28 24 26 26 27 29 33 29 45 35 37 119 117 112 111 107 126 114 123 116 128
77 101 32 331 329 332 247 285 334 88 197 119 269 38 340 342 9 10 357 13 30 30 35 34 28 17 18 20 23 25 26 26 48 49 57 101 117 109 114 104 77 89 119 131
10 115 87 342 66 40 309 280 245 223 205 169 287 194 327 326 19 31 21 12 22 28 27 25 27 16 20 21 15 19 18 21 52 75 69 34 18 120 128 125 106 110 103 111
68 103 48 316 14 40 4 217 209 286 159 158 208 189 290 349 60 32 19 20 20 14 10 11 7 9 19 12 10 13 8 22 42 55 58 92 104 95 98 124 126 133 146 134
113 89 110 237 22 27 241 154 214 206 223 205 145 136 267 46 108 66 22 20 10 2 3 358 349 354 28 16 6 353 12 31 44 41 25 48 86 112 126 127 155 163 160 154
75 106 62 106 185 280 264 213 185 178 271 196 178 208 269 318 205 108 10 7 341 333 330 334 334 341 5 8 354 7 18 16 20 3 302 233 158 153 149 165 179 202 128 143
355 94 112 32 124 202 223 172 127 99 287 185 162 198 217 325 188 249 333 329 335 336 330 340 341 11 29 358 346 14 18 25 19 0 335 260 200 185 195 197 185 158 167 175
32 359 154 225 233 283 199 155 117 148 232 165 175 189 174 159 228 251 301 321 319 334 358 357 357 5 5 10 10 15 6 11 327 321 321 325 248 213 201 188 164 152 159 164
181 153 216 134 53 290 149 111 173 196 147 169 183 191 190 186 242 313 296 319 324 328 357 27 11 352 360 12 22 16 13 328 327 325 322 311 292 217 182 171 171 164 160 171
238 192 198 185 218 236 201 210 174 157 160 179 165 175 163 155 220 313 314 321 299 320 332 1 6 17 14 7 28 17 336 336 327 325 320 309 295 227 157 169 172 157 164 167
257 185 221 3 267 213 197 188 173 168 151 150 134 138 125 197 294 295 299 306 312 304 332 321 356 350 352 1 27 17 344 334 339 336 329 325 244 183 159 157 166 179 184 187
204 142 205 260 274 308 253 200 171 149 138 138 140 137 159 176 270 270 279 287 291 275 303 314 306 315 324 340 1 6 356 349 349 343 352 345 336 187 180 184 194 210 207 200
189 195 176 225 220 195 238 195 157 153 167 164 158 150 166 174 227 257 263 257 264 262 284 293 289 290 307 317 360 355 2 6 1 358 354 345 345 352 321 181 235 304 308 249